• In Hungary
  • List of Countries
  • For 7 days
  • Water Temperature
  • Satellite Maps
  • Weather Map
  • News
  • Weather Widgets
  • user-avatar
    Login

    Hourly Weather Ko Lanta

    Today, 24 January, Wednesday

    Time Temperature Precipitation Wind Pressure Humidity
    00:00 +26°C° 0.6 mm 1 mps 755 mmHg 93%
    01:00 +26°C° 0 mm 1 mps 755 mmHg 93%
    02:00 +26°C° 0 mm 1 mps 755 mmHg 93%
    03:00 +26°C° 0 mm 1 mps 755 mmHg 93%
    04:00 +25°C° 0 mm 1 mps 754 mmHg 94%
    05:00 +25°C° 0.3 mm 1 mps 755 mmHg 94%
    06:00 +25°C° 0.3 mm 2 mps 755 mmHg 93%
    07:00 +25°C° 0.3 mm 2 mps 755 mmHg 93%
    08:00 +27°C° 0.6 mm 2 mps 755 mmHg 85%
    09:00 +29°C° 0.6 mm 2 mps 756 mmHg 77%
    10:00 +31°C° 0.6 mm 2 mps 756 mmHg 68%
    11:00 +31°C° 0.8 mm 2 mps 756 mmHg 71%
    12:00 +31°C° 0.8 mm 1 mps 755 mmHg 73%
    13:00 +31°C° 0.8 mm 1 mps 755 mmHg 76%
    14:00 +31°C° 1.4 mm 1 mps 755 mmHg 79%
    15:00 +30°C° 1.4 mm 1 mps 754 mmHg 83%
    16:00 +29°C° 1.4 mm 1 mps 754 mmHg 86%
    17:00 +29°C° 0.3 mm 1 mps 754 mmHg 87%
    18:00 +28°C° 0.3 mm 1 mps 754 mmHg 88%
    19:00 +27°C° 0.3 mm 1 mps 754 mmHg 89%
    20:00 +27°C° 0 mm 1 mps 754 mmHg 89%
    21:00 +26°C° 0 mm 1 mps 755 mmHg 90%
    22:00 +26°C° 0 mm 1 mps 755 mmHg 91%
    23:00 +26°C° 0 mm 1 mps 755 mmHg 92%

    Tomorrow, 25 January, Thursday

    Time Temperature Precipitation Wind Pressure Humidity
    00:00 +26°C° 0 mm 1 mps 755 mmHg 92%
    01:00 +25°C° 0 mm 2 mps 755 mmHg 93%
    02:00 +25°C° 0 mm 2 mps 755 mmHg 93%
    03:00 +25°C° 0 mm 2 mps 754 mmHg 93%
    04:00 +25°C° 0 mm 2 mps 754 mmHg 93%
    05:00 +25°C° 0 mm 2 mps 754 mmHg 93%
    06:00 +25°C° 0 mm 2 mps 754 mmHg 93%
    07:00 +25°C° 0 mm 2 mps 754 mmHg 93%
    08:00 +27°C° 0.1 mm 2 mps 755 mmHg 86%
    09:00 +28°C° 0.1 mm 2 mps 755 mmHg 78%
    10:00 +30°C° 0.1 mm 2 mps 756 mmHg 71%
    11:00 +31°C° 0 mm 2 mps 756 mmHg 68%
    12:00 +32°C° 0 mm 2 mps 755 mmHg 64%
    13:00 +34°C° 0 mm 2 mps 755 mmHg 61%
    14:00 +32°C° 0.3 mm 2 mps 754 mmHg 65%
    15:00 +31°C° 0.3 mm 2 mps 753 mmHg 70%
    16:00 +31°C° 0.3 mm 2 mps 753 mmHg 75%
    17:00 +30°C° 0.3 mm 1 mps 753 mmHg 80%
    18:00 +28°C° 0.3 mm 1 mps 753 mmHg 84%
    19:00 +27°C° 0.3 mm 1 mps 754 mmHg 89%
    20:00 +27°C° 0 mm 1 mps 754 mmHg 91%
    21:00 +27°C° 0 mm 2 mps 755 mmHg 92%
    22:00 +26°C° 0 mm 2 mps 756 mmHg 93%
    23:00 +26°C° 0 mm 2 mps 755 mmHg 94%

    Day after tomorrow, 26 January, Friday

    Time Temperature Precipitation Wind Pressure Humidity
    00:00 +26°C° 0 mm 2 mps 755 mmHg 94%
    01:00 +26°C° 0 mm 3 mps 755 mmHg 94%
    02:00 +26°C° 0 mm 3 mps 755 mmHg 95%
    03:00 +25°C° 0 mm 3 mps 754 mmHg 95%
    04:00 +25°C° 0 mm 3 mps 754 mmHg 95%
    05:00 +25°C° 0 mm 3 mps 754 mmHg 95%
    06:00 +25°C° 0 mm 3 mps 754 mmHg 96%
    07:00 +25°C° 0 mm 3 mps 755 mmHg 96%
    08:00 +27°C° 0.2 mm 3 mps 755 mmHg 89%
    09:00 +29°C° 0.2 mm 3 mps 756 mmHg 82%
    10:00 +30°C° 0.2 mm 3 mps 757 mmHg 75%
    11:00 +31°C° 0.5 mm 2 mps 756 mmHg 72%
    12:00 +32°C° 0.5 mm 2 mps 756 mmHg 68%
    13:00 +33°C° 0.5 mm 1 mps 755 mmHg 65%
    14:00 +32°C° 0.8 mm 1 mps 754 mmHg 70%
    15:00 +31°C° 0.8 mm 1 mps 754 mmHg 74%
    16:00 +31°C° 0.8 mm 1 mps 753 mmHg 78%
    17:00 +30°C° 0.4 mm 2 mps 753 mmHg 82%
    18:00 +29°C° 0.4 mm 2 mps 754 mmHg 86%
    19:00 +27°C° 0.4 mm 2 mps 754 mmHg 89%
    20:00 +27°C° 0.2 mm 3 mps 755 mmHg 91%
    21:00 +27°C° 0.2 mm 3 mps 756 mmHg 92%
    22:00 +26°C° 0.2 mm 4 mps 756 mmHg 93%
    23:00 +26°C° 0 mm 3 mps 756 mmHg 93%

    27 January, Saturday

    Time Temperature Precipitation Wind Pressure Humidity
    00:00 +26°C° 0 mm 3 mps 756 mmHg 94%
    01:00 +26°C° 0 mm 3 mps 755 mmHg 94%
    02:00 +26°C° 0 mm 3 mps 755 mmHg 94%
    03:00 +26°C° 0 mm 3 mps 754 mmHg 94%
    04:00 +25°C° 0 mm 3 mps 754 mmHg 94%
    05:00 +25°C° 0 mm 3 mps 754 mmHg 94%
    06:00 +25°C° 0 mm 3 mps 755 mmHg 94%
    07:00 +25°C° 0 mm 3 mps 755 mmHg 94%
    08:00 +27°C° 0 mm 3 mps 756 mmHg 87%
    09:00 +29°C° 0 mm 3 mps 756 mmHg 79%
    10:00 +31°C° 0 mm 3 mps 757 mmHg 71%
    11:00 +33°C° 0 mm 3 mps 756 mmHg 67%
    12:00 +34°C° 0 mm 3 mps 755 mmHg 62%
    13:00 +35°C° 0 mm 3 mps 755 mmHg 58%
    14:00 +34°C° 0.4 mm 2 mps 754 mmHg 61%
    15:00 +34°C° 0.4 mm 2 mps 753 mmHg 64%
    16:00 +32°C° 0.4 mm 2 mps 752 mmHg 67%
    17:00 +31°C° 0.1 mm 2 mps 753 mmHg 73%
    18:00 +30°C° 0.1 mm 2 mps 753 mmHg 78%
    19:00 +28°C° 0.1 mm 2 mps 754 mmHg 84%
    20:00 +28°C° 0 mm 3 mps 754 mmHg 86%
    21:00 +27°C° 0 mm 4 mps 755 mmHg 88%
    22:00 +27°C° 0 mm 5 mps 756 mmHg 90%
    23:00 +27°C° 0 mm 4 mps 755 mmHg 90%

    28 January, Sunday

    Time Temperature Precipitation Wind Pressure Humidity
    00:00 +27°C° 0 mm 4 mps 755 mmHg 91%
    01:00 +26°C° 0 mm 4 mps 755 mmHg 91%
    02:00 +26°C° 0 mm 4 mps 754 mmHg 92%
    03:00 +26°C° 0 mm 4 mps 754 mmHg 93%
    04:00 +26°C° 0 mm 4 mps 753 mmHg 93%
    05:00 +26°C° 0 mm 4 mps 754 mmHg 93%
    06:00 +26°C° 0 mm 4 mps 754 mmHg 94%
    07:00 +26°C° 0 mm 3 mps 755 mmHg 94%
    08:00 +28°C° 0 mm 4 mps 755 mmHg 86%
    09:00 +29°C° 0 mm 4 mps 756 mmHg 78%
    10:00 +32°C° 0 mm 4 mps 757 mmHg 70%
    11:00 +33°C° 0 mm 3 mps 756 mmHg 65%
    12:00 +34°C° 0 mm 3 mps 755 mmHg 60%
    13:00 +36°C° 0 mm 2 mps 755 mmHg 55%
    14:00 +35°C° 1.8 mm 2 mps 754 mmHg 62%
    15:00 +34°C° 1.8 mm 2 mps 753 mmHg 69%
    16:00 +32°C° 1.8 mm 1 mps 753 mmHg 76%
    17:00 +30°C° 0.8 mm 2 mps 753 mmHg 80%
    18:00 +29°C° 0.8 mm 2 mps 754 mmHg 84%
    19:00 +28°C° 0.8 mm 2 mps 754 mmHg 88%
    20:00 +28°C° 1 mm 3 mps 755 mmHg 89%
    21:00 +27°C° 1 mm 3 mps 755 mmHg 91%
    22:00 +27°C° 1 mm 4 mps 756 mmHg 92%
    23:00 +27°C° 0.1 mm 4 mps 756 mmHg 93%

    29 January, Monday

    Time Temperature Precipitation Wind Pressure Humidity
    00:00 +26°C° 0.1 mm 4 mps 756 mmHg 93%
    01:00 +26°C° 0.1 mm 4 mps 755 mmHg 94%
    02:00 +26°C° 0.1 mm 3 mps 755 mmHg 94%
    03:00 +26°C° 0.1 mm 3 mps 755 mmHg 94%
    04:00 +26°C° 0.1 mm 3 mps 755 mmHg 94%
    05:00 +26°C° 0.4 mm 3 mps 755 mmHg 95%
    06:00 +26°C° 0.4 mm 3 mps 755 mmHg 95%
    07:00 +26°C° 0.4 mm 3 mps 756 mmHg 95%
    08:00 +27°C° 0.4 mm 3 mps 756 mmHg 88%
    09:00 +29°C° 0.4 mm 3 mps 757 mmHg 82%
    10:00 +31°C° 0.4 mm 2 mps 757 mmHg 76%
    11:00 +32°C° 0.3 mm 2 mps 757 mmHg 72%
    12:00 +33°C° 0.3 mm 1 mps 756 mmHg 68%
    13:00 +34°C° 0.3 mm 1 mps 756 mmHg 64%
    14:00 +33°C° 0.8 mm 1 mps 755 mmHg 68%
    15:00 +32°C° 0.8 mm 1 mps 754 mmHg 72%
    16:00 +31°C° 0.8 mm 1 mps 754 mmHg 76%
    17:00 +30°C° 0.4 mm 1 mps 754 mmHg 80%
    18:00 +29°C° 0.4 mm 1 mps 755 mmHg 84%
    19:00 +28°C° 0.4 mm 1 mps 755 mmHg 87%
    20:00 +28°C° 0 mm 1 mps 756 mmHg 88%
    21:00 +27°C° 0 mm 1 mps 756 mmHg 90%
    22:00 +27°C° 0 mm 1 mps 757 mmHg 91%
    23:00 +27°C° 0 mm 1 mps 756 mmHg 92%
    Show more